owner,sensor,date,latitude,longitude,air_temperature,qcFlag 
COMPS,ioos:station:USF.COMPS:SHP:1,2019-09-01T00:54:00,30.0600,-84.2910,26.48,11111222 
COMPS,ioos:station:USF.COMPS:SHP:1,2019-09-01T01:54:00,30.0600,-84.2910,26.01,11111222 
COMPS,ioos:station:USF.COMPS:SHP:1,2019-09-01T02:54:00,30.0600,-84.2910,25.52,11111222 
COMPS,ioos:station:USF.COMPS:SHP:1,2019-09-01T03:54:00,30.0600,-84.2910,25.44,11111222 
COMPS,ioos:station:USF.COMPS:SHP:1,2019-09-01T04:54:00,30.0600,-84.2910,25.55,11111222 
COMPS,ioos:station:USF.COMPS:SHP:1,2019-09-01T05:54:00,30.0600,-84.2910,25.71,11111222 
COMPS,ioos:station:USF.COMPS:SHP:1,2019-09-01T06:54:00,30.0600,-84.2910,25.64,11111222 
COMPS,ioos:station:USF.COMPS:SHP:1,2019-09-01T07:54:00,30.0600,-84.2910,25.42,11111222 
COMPS,ioos:station:USF.COMPS:SHP:1,2019-09-01T08:54:00,30.0600,-84.2910,25.3,11111222 
COMPS,ioos:station:USF.COMPS:SHP:1,2019-09-01T09:54:00,30.0600,-84.2910,25.41,11111222 
COMPS,ioos:station:USF.COMPS:SHP:1,2019-09-01T10:54:00,30.0600,-84.2910,25.45,11111222 
COMPS,ioos:station:USF.COMPS:SHP:1,2019-09-01T11:54:00,30.0600,-84.2910,25.55,11111222 
COMPS,ioos:station:USF.COMPS:SHP:1,2019-09-01T12:54:00,30.0600,-84.2910,25.99,11111222 
COMPS,ioos:station:USF.COMPS:SHP:1,2019-09-01T13:54:00,30.0600,-84.2910,27.08,11111222 
COMPS,ioos:station:USF.COMPS:SHP:1,2019-09-01T14:54:00,30.0600,-84.2910,28.83,11111222 
COMPS,ioos:station:USF.COMPS:SHP:1,2019-09-01T15:54:00,30.0600,-84.2910,30.05,11111222 
COMPS,ioos:station:USF.COMPS:SHP:1,2019-09-01T16:54:00,30.0600,-84.2910,31.49,11111222 
COMPS,ioos:station:USF.COMPS:SHP:1,2019-09-01T17:54:00,30.0600,-84.2910,31.46,11111222 
COMPS,ioos:station:USF.COMPS:SHP:1,2019-09-01T18:54:00,30.0600,-84.2910,32.21,11111222 
COMPS,ioos:station:USF.COMPS:SHP:1,2019-09-01T19:54:00,30.0600,-84.2910,31.73,11111222 
COMPS,ioos:station:USF.COMPS:SHP:1,2019-09-01T20:54:00,30.0600,-84.2910,31.6,11111222 
COMPS,ioos:station:USF.COMPS:SHP:1,2019-09-01T21:54:00,30.0600,-84.2910,33.22,11111222 
COMPS,ioos:station:USF.COMPS:SHP:1,2019-09-01T22:54:00,30.0600,-84.2910,29.06,11111222 
COMPS,ioos:station:USF.COMPS:SHP:1,2019-09-01T23:54:00,30.0600,-84.2910,27.91,11111222 
COMPS,ioos:station:USF.COMPS:SHP:1,2019-09-02T00:54:00,30.0600,-84.2910,27.93,11111222 
COMPS,ioos:station:USF.COMPS:SHP:1,2019-09-02T01:54:00,30.0600,-84.2910,27.18,11111222 
COMPS,ioos:station:USF.COMPS:SHP:1,2019-09-02T02:54:00,30.0600,-84.2910,27.25,11111222 
COMPS,ioos:station:USF.COMPS:SHP:1,2019-09-02T03:54:00,30.0600,-84.2910,27.07,11111222 
COMPS,ioos:station:USF.COMPS:SHP:1,2019-09-02T04:54:00,30.0600,-84.2910,26.52,11111222 
COMPS,ioos:station:USF.COMPS:SHP:1,2019-09-02T05:54:00,30.0600,-84.2910,26.26,11111222 
COMPS,ioos:station:USF.COMPS:SHP:1,2019-09-02T06:54:00,30.0600,-84.2910,25.92,11111222 
COMPS,ioos:station:USF.COMPS:SHP:1,2019-09-02T07:54:00,30.0600,-84.2910,24.69,11111222 
COMPS,ioos:station:USF.COMPS:SHP:1,2019-09-02T08:54:00,30.0600,-84.2910,25.46,11111222 
COMPS,ioos:station:USF.COMPS:SHP:1,2019-09-02T09:54:00,30.0600,-84.2910,24.96,11111222 
COMPS,ioos:station:USF.COMPS:SHP:1,2019-09-02T10:54:00,30.0600,-84.2910,24.64,11111222 
COMPS,ioos:station:USF.COMPS:SHP:1,2019-09-02T11:54:00,30.0600,-84.2910,24.79,11111222 
COMPS,ioos:station:USF.COMPS:SHP:1,2019-09-02T14:54:00,30.0600,-84.2910,27.36,11111222 
COMPS,ioos:station:USF.COMPS:SHP:1,2019-09-02T15:54:00,30.0600,-84.2910,27.73,11111222 
COMPS,ioos:station:USF.COMPS:SHP:1,2019-09-02T16:54:00,30.0600,-84.2910,29.05,11111222 
COMPS,ioos:station:USF.COMPS:SHP:1,2019-09-02T17:54:00,30.0600,-84.2910,29.95,11111222 
COMPS,ioos:station:USF.COMPS:SHP:1,2019-09-02T18:54:00,30.0600,-84.2910,30.41,11111222 
COMPS,ioos:station:USF.COMPS:SHP:1,2019-09-02T19:54:00,30.0600,-84.2910,31.08,11111222 
COMPS,ioos:station:USF.COMPS:SHP:1,2019-09-02T20:54:00,30.0600,-84.2910,31.47,11111222 
COMPS,ioos:station:USF.COMPS:SHP:1,2019-09-02T21:54:00,30.0600,-84.2910,32.18,11111222 
COMPS,ioos:station:USF.COMPS:SHP:1,2019-09-02T22:54:00,30.0600,-84.2910,31.2,11111222 
COMPS,ioos:station:USF.COMPS:SHP:1,2019-09-02T23:54:00,30.0600,-84.2910,30.24,11111222 
COMPS,ioos:station:USF.COMPS:SHP:1,2019-09-03T00:54:00,30.0600,-84.2910,28.79,11111222 
COMPS,ioos:station:USF.COMPS:SHP:1,2019-09-03T01:54:00,30.0600,-84.2910,28.38,11111222 
COMPS,ioos:station:USF.COMPS:SHP:1,2019-09-03T02:54:00,30.0600,-84.2910,27.46,11111222 
COMPS,ioos:station:USF.COMPS:SHP:1,2019-09-03T03:54:00,30.0600,-84.2910,26.94,11111222 
COMPS,ioos:station:USF.COMPS:SHP:1,2019-09-03T04:54:00,30.0600,-84.2910,26.63,11111222 
COMPS,ioos:station:USF.COMPS:SHP:1,2019-09-03T05:54:00,30.0600,-84.2910,25.99,11111222 
COMPS,ioos:station:USF.COMPS:SHP:1,2019-09-03T06:54:00,30.0600,-84.2910,25.31,11111222 
COMPS,ioos:station:USF.COMPS:SHP:1,2019-09-03T07:54:00,30.0600,-84.2910,24.92,11111222 
COMPS,ioos:station:USF.COMPS:SHP:1,2019-09-03T08:54:00,30.0600,-84.2910,24.43,11111222 
COMPS,ioos:station:USF.COMPS:SHP:1,2019-09-03T09:54:00,30.0600,-84.2910,24.24,11111222 
COMPS,ioos:station:USF.COMPS:SHP:1,2019-09-03T10:54:00,30.0600,-84.2910,23.77,11111222 
COMPS,ioos:station:USF.COMPS:SHP:1,2019-09-03T11:54:00,30.0600,-84.2910,24.12,11111222 
COMPS,ioos:station:USF.COMPS:SHP:1,2019-09-03T12:54:00,30.0600,-84.2910,24.56,11111222 
COMPS,ioos:station:USF.COMPS:SHP:1,2019-09-03T13:54:00,30.0600,-84.2910,25.7,11111222 
COMPS,ioos:station:USF.COMPS:SHP:1,2019-09-03T14:54:00,30.0600,-84.2910,28.07,11111222 
COMPS,ioos:station:USF.COMPS:SHP:1,2019-09-03T15:54:00,30.0600,-84.2910,29.0,11111222 
COMPS,ioos:station:USF.COMPS:SHP:1,2019-09-03T16:54:00,30.0600,-84.2910,30.1,11111222 
COMPS,ioos:station:USF.COMPS:SHP:1,2019-09-03T17:54:00,30.0600,-84.2910,31.1,11111222 
COMPS,ioos:station:USF.COMPS:SHP:1,2019-09-03T18:54:00,30.0600,-84.2910,31.87,11111222 
COMPS,ioos:station:USF.COMPS:SHP:1,2019-09-03T19:54:00,30.0600,-84.2910,32.01,11111222 
COMPS,ioos:station:USF.COMPS:SHP:1,2019-09-03T20:54:00,30.0600,-84.2910,32.62,11111222 
COMPS,ioos:station:USF.COMPS:SHP:1,2019-09-03T21:54:00,30.0600,-84.2910,32.78,11111222 
COMPS,ioos:station:USF.COMPS:SHP:1,2019-09-03T22:54:00,30.0600,-84.2910,32.05,11111222 
COMPS,ioos:station:USF.COMPS:SHP:1,2019-09-03T23:54:00,30.0600,-84.2910,30.85,11111222 
COMPS,ioos:station:USF.COMPS:SHP:1,2019-09-04T00:54:00,30.0600,-84.2910,29.7,11111222 
COMPS,ioos:station:USF.COMPS:SHP:1,2019-09-04T01:54:00,30.0600,-84.2910,29.17,11111222 
COMPS,ioos:station:USF.COMPS:SHP:1,2019-09-04T02:54:00,30.0600,-84.2910,28.4,11111222 
COMPS,ioos:station:USF.COMPS:SHP:1,2019-09-04T03:54:00,30.0600,-84.2910,26.9,11111222 
COMPS,ioos:station:USF.COMPS:SHP:1,2019-09-04T04:54:00,30.0600,-84.2910,26.57,11111222 
COMPS,ioos:station:USF.COMPS:SHP:1,2019-09-04T05:54:00,30.0600,-84.2910,26.42,11111222 
COMPS,ioos:station:USF.COMPS:SHP:1,2019-09-04T06:54:00,30.0600,-84.2910,25.72,11111222 
COMPS,ioos:station:USF.COMPS:SHP:1,2019-09-04T07:54:00,30.0600,-84.2910,25.25,11111222 
COMPS,ioos:station:USF.COMPS:SHP:1,2019-09-04T08:54:00,30.0600,-84.2910,24.73,11111222 
COMPS,ioos:station:USF.COMPS:SHP:1,2019-09-04T09:54:00,30.0600,-84.2910,24.69,11111222 
COMPS,ioos:station:USF.COMPS:SHP:1,2019-09-04T10:54:00,30.0600,-84.2910,24.1,11111222 
COMPS,ioos:station:USF.COMPS:SHP:1,2019-09-04T11:54:00,30.0600,-84.2910,24.86,11111222 
COMPS,ioos:station:USF.COMPS:SHP:1,2019-09-04T12:54:00,30.0600,-84.2910,26.0,11111222 
COMPS,ioos:station:USF.COMPS:SHP:1,2019-09-04T13:54:00,30.0600,-84.2910,28.12,11111222 
COMPS,ioos:station:USF.COMPS:SHP:1,2019-09-04T14:54:00,30.0600,-84.2910,29.61,11111222 
COMPS,ioos:station:USF.COMPS:SHP:1,2019-09-04T15:54:00,30.0600,-84.2910,30.87,11111222 
COMPS,ioos:station:USF.COMPS:SHP:1,2019-09-04T16:54:00,30.0600,-84.2910,31.82,11111222 
COMPS,ioos:station:USF.COMPS:SHP:1,2019-09-04T17:54:00,30.0600,-84.2910,32.25,11111222 
COMPS,ioos:station:USF.COMPS:SHP:1,2019-09-04T18:54:00,30.0600,-84.2910,33.03,11111222 
COMPS,ioos:station:USF.COMPS:SHP:1,2019-09-04T19:54:00,30.0600,-84.2910,33.47,11111222 
COMPS,ioos:station:USF.COMPS:SHP:1,2019-09-04T20:54:00,30.0600,-84.2910,33.86,11111222 
COMPS,ioos:station:USF.COMPS:SHP:1,2019-09-04T21:54:00,30.0600,-84.2910,33.79,11111222 
COMPS,ioos:station:USF.COMPS:SHP:1,2019-09-04T22:54:00,30.0600,-84.2910,33.43,11111222 
COMPS,ioos:station:USF.COMPS:SHP:1,2019-09-04T23:54:00,30.0600,-84.2910,31.94,11111222 
COMPS,ioos:station:USF.COMPS:SHP:1,2019-09-05T00:54:00,30.0600,-84.2910,30.12,11111222 
COMPS,ioos:station:USF.COMPS:SHP:1,2019-09-05T01:54:00,30.0600,-84.2910,29.3,11111222 
COMPS,ioos:station:USF.COMPS:SHP:1,2019-09-05T02:54:00,30.0600,-84.2910,29.18,11111222 
COMPS,ioos:station:USF.COMPS:SHP:1,2019-09-05T03:54:00,30.0600,-84.2910,28.74,11111222 
COMPS,ioos:station:USF.COMPS:SHP:1,2019-09-05T04:54:00,30.0600,-84.2910,27.87,11111222 
COMPS,ioos:station:USF.COMPS:SHP:1,2019-09-05T05:54:00,30.0600,-84.2910,27.75,11111222 
COMPS,ioos:station:USF.COMPS:SHP:1,2019-09-05T06:54:00,30.0600,-84.2910,27.36,11111222 
COMPS,ioos:station:USF.COMPS:SHP:1,2019-09-05T07:54:00,30.0600,-84.2910,27.2,11111222 
COMPS,ioos:station:USF.COMPS:SHP:1,2019-09-05T08:54:00,30.0600,-84.2910,26.84,11111222 
COMPS,ioos:station:USF.COMPS:SHP:1,2019-09-05T09:54:00,30.0600,-84.2910,26.26,11111222 
COMPS,ioos:station:USF.COMPS:SHP:1,2019-09-05T10:54:00,30.0600,-84.2910,25.9,11111222 
COMPS,ioos:station:USF.COMPS:SHP:1,2019-09-05T11:54:00,30.0600,-84.2910,25.54,11111222 
COMPS,ioos:station:USF.COMPS:SHP:1,2019-09-05T12:54:00,30.0600,-84.2910,26.8,11111222 
COMPS,ioos:station:USF.COMPS:SHP:1,2019-09-05T13:54:00,30.0600,-84.2910,28.56,11111222 
COMPS,ioos:station:USF.COMPS:SHP:1,2019-09-05T14:54:00,30.0600,-84.2910,29.9,11111222 
COMPS,ioos:station:USF.COMPS:SHP:1,2019-09-05T15:54:00,30.0600,-84.2910,31.62,11111222 
COMPS,ioos:station:USF.COMPS:SHP:1,2019-09-05T16:54:00,30.0600,-84.2910,33.12,11111222 
COMPS,ioos:station:USF.COMPS:SHP:1,2019-09-05T17:54:00,30.0600,-84.2910,34.31,11111222 
COMPS,ioos:station:USF.COMPS:SHP:1,2019-09-05T18:54:00,30.0600,-84.2910,35.41,11111222 
COMPS,ioos:station:USF.COMPS:SHP:1,2019-09-05T19:54:00,30.0600,-84.2910,35.72,11111222 
COMPS,ioos:station:USF.COMPS:SHP:1,2019-09-05T20:54:00,30.0600,-84.2910,35.73,11111222 
COMPS,ioos:station:USF.COMPS:SHP:1,2019-09-05T21:54:00,30.0600,-84.2910,35.71,11111222 
COMPS,ioos:station:USF.COMPS:SHP:1,2019-09-05T22:54:00,30.0600,-84.2910,34.78,11111222 
COMPS,ioos:station:USF.COMPS:SHP:1,2019-09-05T23:54:00,30.0600,-84.2910,32.93,11111222 
COMPS,ioos:station:USF.COMPS:SHP:1,2019-09-06T00:54:00,30.0600,-84.2910,31.34,11111222 
COMPS,ioos:station:USF.COMPS:SHP:1,2019-09-06T01:54:00,30.0600,-84.2910,30.39,11111222 
COMPS,ioos:station:USF.COMPS:SHP:1,2019-09-06T02:54:00,30.0600,-84.2910,29.41,11111222 
COMPS,ioos:station:USF.COMPS:SHP:1,2019-09-06T03:54:00,30.0600,-84.2910,29.14,11111222 
COMPS,ioos:station:USF.COMPS:SHP:1,2019-09-06T05:54:00,30.0600,-84.2910,27.87,11111222 
COMPS,ioos:station:USF.COMPS:SHP:1,2019-09-06T06:54:00,30.0600,-84.2910,27.34,11111222 
COMPS,ioos:station:USF.COMPS:SHP:1,2019-09-06T07:54:00,30.0600,-84.2910,26.68,11111222 
COMPS,ioos:station:USF.COMPS:SHP:1,2019-09-06T08:54:00,30.0600,-84.2910,25.51,11111222 
COMPS,ioos:station:USF.COMPS:SHP:1,2019-09-06T09:54:00,30.0600,-84.2910,24.69,11111222 
COMPS,ioos:station:USF.COMPS:SHP:1,2019-09-06T10:54:00,30.0600,-84.2910,24.14,11111222 
COMPS,ioos:station:USF.COMPS:SHP:1,2019-09-06T11:54:00,30.0600,-84.2910,23.96,11111222 
COMPS,ioos:station:USF.COMPS:SHP:1,2019-09-06T12:54:00,30.0600,-84.2910,25.09,11111222 
COMPS,ioos:station:USF.COMPS:SHP:1,2019-09-06T13:54:00,30.0600,-84.2910,26.55,11111222 
COMPS,ioos:station:USF.COMPS:SHP:1,2019-09-06T14:54:00,30.0600,-84.2910,28.03,11111222 
COMPS,ioos:station:USF.COMPS:SHP:1,2019-09-06T15:54:00,30.0600,-84.2910,29.5,11111222 
COMPS,ioos:station:USF.COMPS:SHP:1,2019-09-06T16:54:00,30.0600,-84.2910,30.99,11111222 
COMPS,ioos:station:USF.COMPS:SHP:1,2019-09-06T17:54:00,30.0600,-84.2910,31.64,11111222 
COMPS,ioos:station:USF.COMPS:SHP:1,2019-09-06T18:54:00,30.0600,-84.2910,32.1,11111222 
COMPS,ioos:station:USF.COMPS:SHP:1,2019-09-06T19:54:00,30.0600,-84.2910,32.78,11111222 
COMPS,ioos:station:USF.COMPS:SHP:1,2019-09-06T20:54:00,30.0600,-84.2910,33.18,11111222 
COMPS,ioos:station:USF.COMPS:SHP:1,2019-09-06T21:54:00,30.0600,-84.2910,33.21,11111222 
COMPS,ioos:station:USF.COMPS:SHP:1,2019-09-06T22:54:00,30.0600,-84.2910,32.41,11111222 
COMPS,ioos:station:USF.COMPS:SHP:1,2019-09-06T23:54:00,30.0600,-84.2910,30.5,11111222 
COMPS,ioos:station:USF.COMPS:SHP:1,2019-09-07T00:54:00,30.0600,-84.2910,28.79,11111222 
COMPS,ioos:station:USF.COMPS:SHP:1,2019-09-07T01:54:00,30.0600,-84.2910,27.57,11111222 
COMPS,ioos:station:USF.COMPS:SHP:1,2019-09-07T02:54:00,30.0600,-84.2910,27.71,11111222 
COMPS,ioos:station:USF.COMPS:SHP:1,2019-09-07T03:54:00,30.0600,-84.2910,27.89,11111222 
COMPS,ioos:station:USF.COMPS:SHP:1,2019-09-07T04:54:00,30.0600,-84.2910,26.39,11111222 
COMPS,ioos:station:USF.COMPS:SHP:1,2019-09-07T05:54:00,30.0600,-84.2910,25.58,11111222 
COMPS,ioos:station:USF.COMPS:SHP:1,2019-09-07T06:54:00,30.0600,-84.2910,24.52,11111222 
COMPS,ioos:station:USF.COMPS:SHP:1,2019-09-07T07:54:00,30.0600,-84.2910,23.69,11111222 
COMPS,ioos:station:USF.COMPS:SHP:1,2019-09-07T08:54:00,30.0600,-84.2910,24.04,11111222 
COMPS,ioos:station:USF.COMPS:SHP:1,2019-09-07T09:54:00,30.0600,-84.2910,23.54,11111222 
COMPS,ioos:station:USF.COMPS:SHP:1,2019-09-07T10:54:00,30.0600,-84.2910,22.64,11111222 
COMPS,ioos:station:USF.COMPS:SHP:1,2019-09-07T11:54:00,30.0600,-84.2910,22.36,11111222 
COMPS,ioos:station:USF.COMPS:SHP:1,2019-09-07T12:54:00,30.0600,-84.2910,24.39,11111222 
COMPS,ioos:station:USF.COMPS:SHP:1,2019-09-07T13:54:00,30.0600,-84.2910,27.14,11111222 
COMPS,ioos:station:USF.COMPS:SHP:1,2019-09-07T14:54:00,30.0600,-84.2910,29.8,11111222 
COMPS,ioos:station:USF.COMPS:SHP:1,2019-09-07T15:54:00,30.0600,-84.2910,32.23,11111222 
COMPS,ioos:station:USF.COMPS:SHP:1,2019-09-07T16:54:00,30.0600,-84.2910,31.36,11111222 
COMPS,ioos:station:USF.COMPS:SHP:1,2019-09-07T17:54:00,30.0600,-84.2910,31.62,11111222 
COMPS,ioos:station:USF.COMPS:SHP:1,2019-09-07T18:54:00,30.0600,-84.2910,31.52,11111222 
COMPS,ioos:station:USF.COMPS:SHP:1,2019-09-07T19:54:00,30.0600,-84.2910,31.84,11111222 
COMPS,ioos:station:USF.COMPS:SHP:1,2019-09-07T20:54:00,30.0600,-84.2910,32.17,11111222 
COMPS,ioos:station:USF.COMPS:SHP:1,2019-09-07T21:54:00,30.0600,-84.2910,31.66,11111222 
COMPS,ioos:station:USF.COMPS:SHP:1,2019-09-07T22:54:00,30.0600,-84.2910,31.03,11111222 
COMPS,ioos:station:USF.COMPS:SHP:1,2019-09-07T23:54:00,30.0600,-84.2910,30.0,11111222 
COMPS,ioos:station:USF.COMPS:SHP:1,2019-09-08T00:54:00,30.0600,-84.2910,29.59,11111222 
COMPS,ioos:station:USF.COMPS:SHP:1,2019-09-08T01:54:00,30.0600,-84.2910,29.3,11111222 
COMPS,ioos:station:USF.COMPS:SHP:1,2019-09-08T02:54:00,30.0600,-84.2910,28.84,11111222 
COMPS,ioos:station:USF.COMPS:SHP:1,2019-09-08T03:54:00,30.0600,-84.2910,28.49,11111222 
COMPS,ioos:station:USF.COMPS:SHP:1,2019-09-08T04:54:00,30.0600,-84.2910,27.9,11111222 
COMPS,ioos:station:USF.COMPS:SHP:1,2019-09-08T05:54:00,30.0600,-84.2910,27.56,11111222 
COMPS,ioos:station:USF.COMPS:SHP:1,2019-09-08T06:54:00,30.0600,-84.2910,26.87,11111222 
COMPS,ioos:station:USF.COMPS:SHP:1,2019-09-08T07:54:00,30.0600,-84.2910,26.7,11111222 
COMPS,ioos:station:USF.COMPS:SHP:1,2019-09-08T08:54:00,30.0600,-84.2910,26.21,11111222 
COMPS,ioos:station:USF.COMPS:SHP:1,2019-09-08T09:54:00,30.0600,-84.2910,26.07,11111222 
COMPS,ioos:station:USF.COMPS:SHP:1,2019-09-08T10:54:00,30.0600,-84.2910,26.15,11111222 
COMPS,ioos:station:USF.COMPS:SHP:1,2019-09-08T11:54:00,30.0600,-84.2910,25.77,11111222 
COMPS,ioos:station:USF.COMPS:SHP:1,2019-09-08T12:54:00,30.0600,-84.2910,26.97,11111222 
COMPS,ioos:station:USF.COMPS:SHP:1,2019-09-08T13:54:00,30.0600,-84.2910,28.47,11111222 
COMPS,ioos:station:USF.COMPS:SHP:1,2019-09-08T14:54:00,30.0600,-84.2910,29.57,11111222 
COMPS,ioos:station:USF.COMPS:SHP:1,2019-09-08T15:54:00,30.0600,-84.2910,31.55,11111222 
COMPS,ioos:station:USF.COMPS:SHP:1,2019-09-08T16:54:00,30.0600,-84.2910,31.32,11111222 
COMPS,ioos:station:USF.COMPS:SHP:1,2019-09-08T17:54:00,30.0600,-84.2910,31.66,11111222 
COMPS,ioos:station:USF.COMPS:SHP:1,2019-09-08T18:54:00,30.0600,-84.2910,32.25,11111222 
COMPS,ioos:station:USF.COMPS:SHP:1,2019-09-08T19:54:00,30.0600,-84.2910,31.54,11111222 
COMPS,ioos:station:USF.COMPS:SHP:1,2019-09-08T20:54:00,30.0600,-84.2910,31.67,11111222 
COMPS,ioos:station:USF.COMPS:SHP:1,2019-09-08T21:54:00,30.0600,-84.2910,31.28,11111222 
COMPS,ioos:station:USF.COMPS:SHP:1,2019-09-08T22:54:00,30.0600,-84.2910,30.75,11111222 
COMPS,ioos:station:USF.COMPS:SHP:1,2019-09-08T23:54:00,30.0600,-84.2910,30.25,11111222 
COMPS,ioos:station:USF.COMPS:SHP:1,2019-09-09T00:54:00,30.0600,-84.2910,29.88,11111222 
COMPS,ioos:station:USF.COMPS:SHP:1,2019-09-09T01:54:00,30.0600,-84.2910,29.5,11111222 
COMPS,ioos:station:USF.COMPS:SHP:1,2019-09-09T02:54:00,30.0600,-84.2910,29.09,11111222 
COMPS,ioos:station:USF.COMPS:SHP:1,2019-09-09T03:54:00,30.0600,-84.2910,28.7,11111222 
COMPS,ioos:station:USF.COMPS:SHP:1,2019-09-09T04:54:00,30.0600,-84.2910,28.04,11111222 
COMPS,ioos:station:USF.COMPS:SHP:1,2019-09-09T05:54:00,30.0600,-84.2910,27.78,11111222 
COMPS,ioos:station:USF.COMPS:SHP:1,2019-09-09T06:54:00,30.0600,-84.2910,27.47,11111222 
COMPS,ioos:station:USF.COMPS:SHP:1,2019-09-09T07:54:00,30.0600,-84.2910,27.69,11111222 
COMPS,ioos:station:USF.COMPS:SHP:1,2019-09-09T08:54:00,30.0600,-84.2910,27.6,11111222 
COMPS,ioos:station:USF.COMPS:SHP:1,2019-09-09T09:54:00,30.0600,-84.2910,26.34,11111222 
COMPS,ioos:station:USF.COMPS:SHP:1,2019-09-09T10:54:00,30.0600,-84.2910,26.14,11111222 
COMPS,ioos:station:USF.COMPS:SHP:1,2019-09-09T11:54:00,30.0600,-84.2910,25.99,11111222 
COMPS,ioos:station:USF.COMPS:SHP:1,2019-09-09T12:54:00,30.0600,-84.2910,27.67,11111222 
COMPS,ioos:station:USF.COMPS:SHP:1,2019-09-09T13:54:00,30.0600,-84.2910,29.45,11111222 
COMPS,ioos:station:USF.COMPS:SHP:1,2019-09-09T14:54:00,30.0600,-84.2910,29.72,11111222 
COMPS,ioos:station:USF.COMPS:SHP:1,2019-09-09T15:54:00,30.0600,-84.2910,30.75,11111222 
COMPS,ioos:station:USF.COMPS:SHP:1,2019-09-09T16:54:00,30.0600,-84.2910,31.17,11111222 
COMPS,ioos:station:USF.COMPS:SHP:1,2019-09-09T20:54:00,30.0600,-84.2910,31.73,11111222 
COMPS,ioos:station:USF.COMPS:SHP:1,2019-09-09T21:54:00,30.0600,-84.2910,31.72,11111222 
COMPS,ioos:station:USF.COMPS:SHP:1,2019-09-09T22:54:00,30.0600,-84.2910,31.59,11111222 
COMPS,ioos:station:USF.COMPS:SHP:1,2019-09-09T23:54:00,30.0600,-84.2910,30.64,11111222 
COMPS,ioos:station:USF.COMPS:SHP:1,2019-09-10T00:54:00,30.0600,-84.2910,30.15,11111222 
COMPS,ioos:station:USF.COMPS:SHP:1,2019-09-10T01:54:00,30.0600,-84.2910,29.82,11111222 
COMPS,ioos:station:USF.COMPS:SHP:1,2019-09-10T02:54:00,30.0600,-84.2910,29.21,11111222 
COMPS,ioos:station:USF.COMPS:SHP:1,2019-09-10T03:54:00,30.0600,-84.2910,27.69,11111222 
COMPS,ioos:station:USF.COMPS:SHP:1,2019-09-10T04:54:00,30.0600,-84.2910,26.06,11111222 
COMPS,ioos:station:USF.COMPS:SHP:1,2019-09-10T05:54:00,30.0600,-84.2910,25.69,11111222 
COMPS,ioos:station:USF.COMPS:SHP:1,2019-09-10T06:54:00,30.0600,-84.2910,24.98,11111222 
COMPS,ioos:station:USF.COMPS:SHP:1,2019-09-10T07:54:00,30.0600,-84.2910,25.85,11111222 
COMPS,ioos:station:USF.COMPS:SHP:1,2019-09-10T08:54:00,30.0600,-84.2910,26.2,11111222 
COMPS,ioos:station:USF.COMPS:SHP:1,2019-09-10T09:54:00,30.0600,-84.2910,25.99,11111222 
COMPS,ioos:station:USF.COMPS:SHP:1,2019-09-10T10:54:00,30.0600,-84.2910,26.29,11111222 
COMPS,ioos:station:USF.COMPS:SHP:1,2019-09-10T11:54:00,30.0600,-84.2910,25.21,11111222 
COMPS,ioos:station:USF.COMPS:SHP:1,2019-09-10T12:54:00,30.0600,-84.2910,27.87,11111222 
COMPS,ioos:station:USF.COMPS:SHP:1,2019-09-10T13:54:00,30.0600,-84.2910,29.17,11111222 
COMPS,ioos:station:USF.COMPS:SHP:1,2019-09-10T14:54:00,30.0600,-84.2910,30.86,11111222 
COMPS,ioos:station:USF.COMPS:SHP:1,2019-09-10T15:54:00,30.0600,-84.2910,29.86,11111222 
COMPS,ioos:station:USF.COMPS:SHP:1,2019-09-10T16:54:00,30.0600,-84.2910,30.61,11111222 
COMPS,ioos:station:USF.COMPS:SHP:1,2019-09-10T17:54:00,30.0600,-84.2910,30.53,11111222 
COMPS,ioos:station:USF.COMPS:SHP:1,2019-09-10T18:54:00,30.0600,-84.2910,30.01,11111222 
COMPS,ioos:station:USF.COMPS:SHP:1,2019-09-10T19:54:00,30.0600,-84.2910,30.7,11111222 
COMPS,ioos:station:USF.COMPS:SHP:1,2019-09-10T20:54:00,30.0600,-84.2910,30.42,11111222 
COMPS,ioos:station:USF.COMPS:SHP:1,2019-09-10T21:54:00,30.0600,-84.2910,29.93,11111222 
COMPS,ioos:station:USF.COMPS:SHP:1,2019-09-10T22:54:00,30.0600,-84.2910,29.96,11111222 
COMPS,ioos:station:USF.COMPS:SHP:1,2019-09-10T23:54:00,30.0600,-84.2910,29.74,11111222 
COMPS,ioos:station:USF.COMPS:SHP:1,2019-09-11T00:54:00,30.0600,-84.2910,28.67,11111222 
COMPS,ioos:station:USF.COMPS:SHP:1,2019-09-11T01:54:00,30.0600,-84.2910,27.21,11111222 
COMPS,ioos:station:USF.COMPS:SHP:1,2019-09-11T02:54:00,30.0600,-84.2910,26.62,11111222 
COMPS,ioos:station:USF.COMPS:SHP:1,2019-09-11T03:54:00,30.0600,-84.2910,26.56,11111222 
COMPS,ioos:station:USF.COMPS:SHP:1,2019-09-11T04:54:00,30.0600,-84.2910,27.04,11111222 
COMPS,ioos:station:USF.COMPS:SHP:1,2019-09-11T05:54:00,30.0600,-84.2910,29.56,11111222 
COMPS,ioos:station:USF.COMPS:SHP:1,2019-09-11T06:54:00,30.0600,-84.2910,28.89,11111222 
COMPS,ioos:station:USF.COMPS:SHP:1,2019-09-11T07:54:00,30.0600,-84.2910,28.25,11111222 
COMPS,ioos:station:USF.COMPS:SHP:1,2019-09-11T08:54:00,30.0600,-84.2910,27.98,11111222 
COMPS,ioos:station:USF.COMPS:SHP:1,2019-09-11T09:54:00,30.0600,-84.2910,26.17,11111222 
COMPS,ioos:station:USF.COMPS:SHP:1,2019-09-11T10:54:00,30.0600,-84.2910,25.05,11111222 
COMPS,ioos:station:USF.COMPS:SHP:1,2019-09-11T11:54:00,30.0600,-84.2910,24.86,11111222 
COMPS,ioos:station:USF.COMPS:SHP:1,2019-09-11T12:54:00,30.0600,-84.2910,25.39,11111222 
COMPS,ioos:station:USF.COMPS:SHP:1,2019-09-11T13:54:00,30.0600,-84.2910,28.05,11111222 
COMPS,ioos:station:USF.COMPS:SHP:1,2019-09-11T14:54:00,30.0600,-84.2910,28.73,11111222 
COMPS,ioos:station:USF.COMPS:SHP:1,2019-09-11T15:54:00,30.0600,-84.2910,29.19,11111222 
COMPS,ioos:station:USF.COMPS:SHP:1,2019-09-11T16:54:00,30.0600,-84.2910,30.29,11111222 
COMPS,ioos:station:USF.COMPS:SHP:1,2019-09-11T17:54:00,30.0600,-84.2910,30.77,11111222 
COMPS,ioos:station:USF.COMPS:SHP:1,2019-09-11T18:54:00,30.0600,-84.2910,31.34,11111222 
COMPS,ioos:station:USF.COMPS:SHP:1,2019-09-11T19:54:00,30.0600,-84.2910,31.45,11111222 
COMPS,ioos:station:USF.COMPS:SHP:1,2019-09-11T20:54:00,30.0600,-84.2910,31.3,11111222 
COMPS,ioos:station:USF.COMPS:SHP:1,2019-09-11T21:54:00,30.0600,-84.2910,33.34,11111222 
COMPS,ioos:station:USF.COMPS:SHP:1,2019-09-11T22:54:00,30.0600,-84.2910,32.99,11111222 
COMPS,ioos:station:USF.COMPS:SHP:1,2019-09-11T23:54:00,30.0600,-84.2910,31.23,11111222 
COMPS,ioos:station:USF.COMPS:SHP:1,2019-09-12T00:54:00,30.0600,-84.2910,29.96,11111222 
COMPS,ioos:station:USF.COMPS:SHP:1,2019-09-12T01:54:00,30.0600,-84.2910,29.32,11111222 
COMPS,ioos:station:USF.COMPS:SHP:1,2019-09-12T02:54:00,30.0600,-84.2910,29.99,11111222 
COMPS,ioos:station:USF.COMPS:SHP:1,2019-09-12T03:54:00,30.0600,-84.2910,28.94,11111222 
COMPS,ioos:station:USF.COMPS:SHP:1,2019-09-12T04:54:00,30.0600,-84.2910,28.33,11111222 
COMPS,ioos:station:USF.COMPS:SHP:1,2019-09-12T05:54:00,30.0600,-84.2910,27.9,11111222 
COMPS,ioos:station:USF.COMPS:SHP:1,2019-09-12T06:54:00,30.0600,-84.2910,27.48,11111222 
COMPS,ioos:station:USF.COMPS:SHP:1,2019-09-12T07:54:00,30.0600,-84.2910,25.73,11111222 
COMPS,ioos:station:USF.COMPS:SHP:1,2019-09-12T08:54:00,30.0600,-84.2910,24.88,11111222 
COMPS,ioos:station:USF.COMPS:SHP:1,2019-09-12T09:54:00,30.0600,-84.2910,24.38,11111222 
COMPS,ioos:station:USF.COMPS:SHP:1,2019-09-12T10:54:00,30.0600,-84.2910,24.11,11111222 
COMPS,ioos:station:USF.COMPS:SHP:1,2019-09-12T11:54:00,30.0600,-84.2910,23.21,11111222 
COMPS,ioos:station:USF.COMPS:SHP:1,2019-09-12T12:54:00,30.0600,-84.2910,25.25,11111222 
COMPS,ioos:station:USF.COMPS:SHP:1,2019-09-12T13:54:00,30.0600,-84.2910,26.68,11111222 